AK6OS Weather Reports


Display with metric or nautical units.
time (UTC)temp
F
wind
direction
speed
MPH
gust
MPH
rain 1hr
in
rain 24hr
in
rain mn
in
humidity
%
barometer
mb
20260503215518 68 278 2.0 5.0 0.00 0.00 0.00 54 1015.7
20260503214559 68 268 2.0 6.0 0.00 0.00 0.00 58 1015.7
20260503213518 68 271 2.0 6.0 0.00 0.00 0.00 59 1015.7
20260503212538 67 261 3.0 6.0 0.00 0.00 0.00 61 1015.7
20260503211519 67 258 3.0 9.0 0.00 0.00 0.00 58 1015.6
20260503210520 68 286 3.0 7.0 0.00 0.00 0.00 58 1015.8
20260503205517 67 230 2.0 6.0 0.00 0.00 0.00 59 1015.8
20260503204516 67 259 3.0 8.0 0.00 0.00 0.00 59 1015.9
20260503203516 67 287 3.0 8.0 0.00 0.00 0.00 60 1016.0
20260503202516 66 251 3.0 8.0 0.00 0.00 0.00 61 1016.0
20260503201517 66 264 3.0 8.0 0.00 0.00 0.00 62 1016.1
20260503200516 66 238 2.0 6.0 0.00 0.00 0.00 61 1016.1
20260503195517 67 277 3.0 8.0 0.00 0.00 0.00 61 1016.1
20260503194518 66 272 3.0 6.0 0.00 0.00 0.00 60 1016.2
20260503193517 66 232 3.0 6.0 0.00 0.00 0.00 59 1016.2
20260503192538 67 267 3.0 6.0 0.00 0.00 0.00 56 1016.2
20260503191520 67 275 2.0 6.0 0.00 0.00 0.00 56 1016.2
20260503190538 67 231 2.0 6.0 0.00 0.00 0.00 55 1016.2
20260503185518 68 285 2.0 6.0 0.00 0.00 0.00 54 1016.3
20260503184518 66 242 2.0 6.0 0.00 0.00 0.00 55 1016.4
20260503183518 65 295 2.0 6.0 0.00 0.00 0.00 56 1016.4
20260503182518 65 231 2.0 5.0 0.00 0.00 0.00 57 1016.5
20260503181515 64 220 2.0 4.0 0.00 0.00 0.00 59 1016.5
20260503180519 64 210 2.0 6.0 0.00 0.00 0.00 59 1016.6
20260503175515 63 265 2.0 4.0 0.00 0.00 0.00 61 1016.5
20260503174517 63 324 2.0 4.0 0.00 0.00 0.00 62 1016.6
20260503173516 63 316 2.0 5.0 0.00 0.00 0.00 64 1016.6
20260503172516 62 280 1.0 5.0 0.00 0.00 0.00 65 1016.6
20260503171557 62 317 2.0 5.0 0.00 0.00 0.00 68 1016.5
20260503170518 61 283 2.0 4.0 0.00 0.00 0.00 70 1016.5
20260503150517 58 268 1.0 4.0 0.00 0.00 0.00 83 1015.7
20260503130518 55 185 0.0 1.0 0.00 0.00 0.00 89 1014.6
20260503110517 55 173 0.0 1.0 0.00 0.00 0.00 88 1014.5
20260503081521 56 38 1.0 3.0 0.00 0.00 0.00 85 1015.0
20260503080519 56 344 2.0 4.0 0.00 0.00 0.00 86 1015.1
20260503072519 56 204 0.0 1.0 0.00 0.00 0.00 87 1015.0
20260503071517 56 157 0.0 1.0 0.00 0.00 0.00 88 1014.9
20260503070519 56 166 0.0 2.0 0.00 0.00 0.00 88 1014.8
20260503054517 54 158 1.0 2.0 0.00 0.00 0.00 90 1014.5
20260503053517 54 166 2.0 3.0 0.00 0.00 0.00 90 1014.5
20260503052518 53 161 1.0 3.0 0.00 0.00 0.00 90 1014.5
20260503051517 53 149 1.0 3.0 0.00 0.00 0.00 90 1014.4
20260503050537 53 166 2.0 3.0 0.00 0.00 0.00 90 1014.3
20260503045518 54 176 1.0 3.0 0.00 0.00 0.00 89 1014.1
20260503044518 54 159 1.0 3.0 0.00 0.00 0.00 89 1014.1
20260503043517 55 154 0.0 1.0 0.00 0.00 0.00 88 1014.0
20260503042518 55 151 0.0 2.0 0.00 0.00 0.00 87 1014.0
20260503041518 56 174 0.0 2.0 0.00 0.00 0.00 86 1014.0
20260503040538 56 60 1.0 3.0 0.00 0.00 0.00 86 1014.0
20260503035518 56 45 1.0 3.0 0.00 0.00 0.00 86 1014.0
20260503034518 56 25 1.0 3.0 0.00 0.00 0.00 86 1013.8
20260503033518 56 22 1.0 4.0 0.00 0.00 0.00 86 1013.8
20260503032515 56 198 1.0 2.0 0.00 0.00 0.00 86 1013.7
20260503031516 57 203 2.0 5.0 0.00 0.00 0.00 86 1013.7
20260503030516 57 204 2.0 5.0 0.00 0.00 0.00 85 1013.6
20260503025517 57 201 1.0 4.0 0.00 0.00 0.00 84 1013.5
20260503024516 58 203 2.0 4.0 0.00 0.00 0.00 83 1013.4
20260503023516 59 220 2.0 7.0 0.00 0.00 0.00 82 1013.2
20260503022558 60 220 2.0 4.0 0.00 0.00 0.00 79 1013.2
20260503021537 60 212 2.0 5.0 0.00 0.00 0.00 77 1013.3
20260503020517 61 267 2.0 5.0 0.00 0.00 0.00 76 1013.3
20260503015518 62 221 2.0 4.0 0.00 0.00 0.00 74 1013.3
20260503014518 63 276 2.0 5.0 0.00 0.00 0.00 72 1013.4
20260503013517 63 247 2.0 5.0 0.00 0.00 0.00 70 1013.4
20260503012518 63 249 2.0 5.0 0.00 0.00 0.00 71 1013.4
20260503011518 64 235 2.0 4.0 0.00 0.00 0.00 69 1013.5
20260503010518 64 251 2.0 5.0 0.00 0.00 0.00 69 1013.5
20260503005518 65 274 2.0 5.0 0.00 0.00 0.00 68 1013.6
20260503004518 66 301 2.0 6.0 0.00 0.00 0.00 66 1013.6
20260503003515 67 250 2.0 5.0 0.00 0.00 0.00 65 1013.6
20260503002518 67 257 2.0 5.0 0.00 0.00 0.00 65 1013.6
20260503001535 67 238 1.0 4.0 0.00 0.00 0.00 66 1013.6
20260503000516 67 282 2.0 5.0 0.00 0.00 0.00 65 1013.6
20260502235536 67 233 2.0 7.0 0.00 0.00 0.00 64 1013.6
20260502234556 67 275 2.0 6.0 0.00 0.00 0.00 64 1013.6
20260502233516 67 232 2.0 5.0 0.00 0.00 0.00 65 1013.7
20260502232517 68 263 2.0 8.0 0.00 0.00 0.00 64 1013.8
20260502231517 68 265 2.0 7.0 0.00 0.00 0.00 64 1014.0
20260502230517 68 264 2.0 6.0 0.00 0.00 0.00 63 1014.1
20260502225517 67 265 2.0 7.0 0.00 0.00 0.00 64 1014.2
20260502224517 67 256 2.0 6.0 0.00 0.00 0.00 64 1014.3
20260502223518 68 246 2.0 7.0 0.00 0.00 0.00 62 1014.5
20260502222518 69 237 3.0 6.0 0.00 0.00 0.00 62 1014.7
20260502221518 68 284 2.0 6.0 0.00 0.00 0.00 63 1014.9
20260502220518 68 288 2.0 5.0 0.00 0.00 0.00 63 1015.1